EW6511 Weather Reports


Display with metric or nautical units.
time (UTC)temp
F
wind
direction
speed
MPH
gust
MPH
rain 1hr
in
rain 24hr
in
rain mn
in
humidity
%
barometer
mb
20260904144150 86 287 9.0 15.0 0.00 0.00 0.00 30 1021.1
20260904143151 86 261 9.0 15.0 0.00 0.00 0.00 30 1021.1
20260904142151 85 294 9.0 13.0 0.00 0.00 0.00 32 1021.2
20260904140149 85 287 10.0 17.0 0.00 0.00 0.00 30 1021.3
20260904135151 85 248 8.0 14.0 0.00 0.00 0.00 31 1021.4
20260904133144 84 246 7.0 15.0 0.00 0.00 0.00 32 1021.5
20260904132143 84 271 8.0 14.0 0.00 0.00 0.00 34 1021.6
20260904131143 84 281 8.0 12.0 0.00 0.00 0.00 33 1021.7
20260904130145 83 258 9.0 14.0 0.00 0.00 0.00 33 1021.8
20260904124143 82 304 6.0 11.0 0.00 0.00 0.00 35 1022.1
20260904123143 82 301 6.0 12.0 0.00 0.00 0.00 37 1022.1
20260904121143 81 232 4.0 10.0 0.00 0.00 0.00 35 1022.5
20260904120141 80 212 5.0 10.0 0.00 0.00 0.00 35 1022.6
20260904114142 79 304 5.0 11.0 0.00 0.00 0.00 37 1022.7
20260904113141 79 284 5.0 9.0 0.00 0.00 0.00 36 1022.7
20260904112141 78 309 3.0 7.0 0.00 0.00 0.00 38 1022.8
20260904111141 78 294 4.0 8.0 0.00 0.00 0.00 41 1022.9
20260904110141 77 184 4.0 8.0 0.00 0.00 0.00 40 1023.0
20260904105140 76 289 4.0 10.0 0.00 0.00 0.00 39 1023.1
20260904103139 75 280 4.0 9.0 0.00 0.00 0.00 42 1023.4
20260904102140 74 284 3.0 8.0 0.00 0.00 0.00 45 1023.5
20260904101138 74 261 4.0 8.0 0.00 0.00 0.00 45 1023.7
20260904100138 73 275 5.0 8.0 0.00 0.00 0.00 43 1023.7
20260904095135 73 265 5.0 8.0 0.00 0.00 0.00 43 1024.0
20260904094136 73 289 5.0 9.0 0.00 0.00 0.00 41 1024.1
20260904093136 72 279 3.0 6.0 0.00 0.00 0.00 42 1024.1
20260904091133 71 265 3.0 6.0 0.00 0.00 0.00 45 1024.3
20260904090134 72 257 2.0 4.0 0.00 0.00 0.00 45 1024.2
20260904085134 71 329 2.0 4.0 0.00 0.00 0.00 46 1024.3
20260904084134 70 329 2.0 4.0 0.00 0.00 0.00 46 1024.1
20260904083135 69 324 3.0 5.0 0.00 0.00 0.00 46 1024.2
20260904082134 69 325 3.0 5.0 0.00 0.00 0.00 48 1024.3
20260904081133 69 318 2.0 4.0 0.00 0.00 0.00 49 1024.3
20260904075134 68 321 0.0 3.0 0.00 0.00 0.00 52 1024.1
20260904074133 67 321 0.0 2.0 0.00 0.00 0.00 50 1024.2
20260904073133 67 321 1.0 2.0 0.00 0.00 0.00 59 1024.4
20260904072133 66 321 1.0 3.0 0.00 0.00 0.00 59 1024.5
20260904071132 65 321 0.0 0.0 0.00 0.00 0.00 59 1024.4
20260904065132 63 128 0.0 0.0 0.00 0.00 0.00 59 1024.4
20260904064130 63 128 0.0 0.0 0.00 0.00 0.00 58 1024.4
20260904063129 63 128 0.0 1.0 0.00 0.00 0.00 60 1024.4
20260904062130 62 132 0.0 0.0 0.00 0.00 0.00 58 1024.4
20260904061128 62 132 0.0 0.0 0.00 0.00 0.00 59 1024.3
20260904060137 59 132 0.0 0.0 0.00 0.00 0.00 61 1024.5
20260904054123 58 132 0.0 0.0 0.00 0.00 0.00 62 1024.5
20260904053122 56 132 0.0 0.0 0.00 0.00 0.00 64 1024.5
20260904052122 56 132 0.0 0.0 0.00 0.00 0.00 63 1024.6
20260904051125 56 132 0.0 0.0 0.00 0.00 0.00 64 1024.6
20260904050124 56 132 0.0 0.0 0.00 0.00 0.00 63 1024.6
20260904045123 56 132 0.0 0.0 0.00 0.00 0.00 63 1024.6
20260904044123 56 132 0.0 0.0 0.00 0.00 0.00 64 1024.7
20260904042124 57 133 0.0 0.0 0.00 0.00 0.00 63 1024.8
20260904041117 57 133 0.0 0.0 0.00 0.00 0.00 62 1024.9
20260904040116 57 133 0.0 0.0 0.00 0.00 0.00 62 1024.8
20260904035118 57 133 0.0 0.0 0.00 0.00 0.00 62 1025.0
20260904034116 58 133 0.0 0.0 0.00 0.00 0.00 61 1025.0
20260904033116 58 133 0.0 0.0 0.00 0.00 0.00 61 1025.0
20260904032116 58 133 0.0 0.0 0.00 0.00 0.00 61 1024.8
20260904031116 58 133 0.0 0.0 0.00 0.00 0.00 62 1024.9
20260904030118 58 133 0.0 0.0 0.00 0.00 0.00 61 1024.8
20260904024111 58 133 0.0 0.0 0.00 0.00 0.00 62 1025.0
20260904023113 59 132 0.0 0.0 0.00 0.00 0.00 60 1025.1
20260904021110 59 132 0.0 0.0 0.00 0.00 0.00 60 1025.3
20260904020112 59 133 0.0 0.0 0.00 0.00 0.00 60 1025.5
20260904015110 59 132 0.0 0.0 0.00 0.00 0.00 61 1025.5
20260904014113 59 132 0.0 0.0 0.00 0.00 0.00 61 1025.6
20260904013109 59 133 0.0 0.0 0.00 0.00 0.00 60 1025.7
20260904011105 60 133 1.0 4.0 0.00 0.00 0.00 60 1025.6
20260904005104 59 197 0.0 3.0 0.00 0.00 0.00 60 1025.9
20260904003104 60 199 0.0 0.0 0.00 0.00 0.00 60 1026.0
20260904002104 60 199 0.0 0.0 0.00 0.00 0.00 60 1026.0
20260904001103 60 199 0.0 0.0 0.00 0.00 0.00 60 1026.0
20260904000105 61 199 0.0 0.0 0.00 0.00 0.00 59 1026.1
20260903235106 61 199 0.0 0.0 0.00 0.00 0.00 59 1026.1
20260903234058 61 199 0.0 0.0 0.00 0.00 0.00 59 1026.0
20260903233058 62 199 0.0 0.0 0.00 0.00 0.00 58 1026.0
20260903232059 62 199 0.0 0.0 0.00 0.00 0.00 57 1026.1
20260903231059 62 199 0.0 2.0 0.00 0.00 0.00 56 1026.0
20260903230059 62 199 1.0 2.0 0.00 0.00 0.00 56 1026.0
20260903225056 62 199 1.0 2.0 0.00 0.00 0.00 55 1026.1
20260903224054 62 199 2.0 3.0 0.00 0.00 0.00 55 1026.1
20260903223054 63 199 2.0 3.0 0.00 0.00 0.00 55 1026.3
20260903222054 63 199 2.0 3.0 0.00 0.00 0.00 53 1026.3
20260903221055 65 199 0.0 2.0 0.00 0.00 0.00 51 1026.4
20260903220055 64 199 0.0 1.0 0.00 0.00 0.00 51 1026.6
20260903215055 65 199 0.0 1.0 0.00 0.00 0.00 51 1026.5
20260903211049 65 200 0.0 0.0 0.00 0.00 0.00 49 1026.6
20260903210104 65 200 0.0 1.0 0.00 0.00 0.00 49 1026.6
20260903205047 65 200 1.0 3.0 0.00 0.00 0.00 49 1026.5
20260903204049 65 200 1.0 3.0 0.00 0.00 0.00 50 1026.4
20260903203049 65 200 0.0 2.0 0.00 0.00 0.00 50 1026.5
20260903202048 65 200 1.0 2.0 0.00 0.00 0.00 49 1026.3
20260903201052 65 200 0.0 2.0 0.00 0.00 0.00 51 1026.3
20260903200052 66 200 0.0 1.0 0.00 0.00 0.00 49 1026.3
20260903194049 67 200 1.0 2.0 0.00 0.00 0.00 49 1026.1
20260903193046 67 200 1.0 2.0 0.00 0.00 0.00 49 1026.1
20260903192046 66 200 2.0 4.0 0.00 0.00 0.00 51 1026.1
20260903191045 68 201 1.0 3.0 0.00 0.00 0.00 49 1025.9
20260903190045 69 176 1.0 4.0 0.00 0.00 0.00 47 1025.9
20260903185047 69 171 2.0 5.0 0.00 0.00 0.00 46 1025.8
20260903184041 70 302 1.0 3.0 0.00 0.00 0.00 45 1025.7
20260903183039 71 302 0.0 2.0 0.00 0.00 0.00 44 1025.7
20260903182041 72 302 0.0 2.0 0.00 0.00 0.00 41 1025.6
20260903181040 73 302 0.0 1.0 0.00 0.00 0.00 40 1025.5
20260903180040 73 302 2.0 2.0 0.00 0.00 0.00 39 1025.6
20260903175041 76 302 1.0 2.0 0.00 0.00 0.00 37 1025.5
20260903174040 78 302 0.0 0.0 0.00 0.00 0.00 35 1025.6
20260903173039 78 302 1.0 2.0 0.00 0.00 0.00 35 1025.6
20260903172039 78 302 2.0 3.0 0.00 0.00 0.00 33 1025.7
20260903171037 78 302 3.0 4.0 0.00 0.00 0.00 34 1025.6
20260903170048 78 302 4.0 7.0 0.00 0.00 0.00 30 1025.7
20260903165037 78 306 4.0 7.0 0.00 0.00 0.00 32 1025.6
20260903164038 78 313 4.0 7.0 0.00 0.00 0.00 33 1025.8
20260903163039 78 278 5.0 11.0 0.00 0.00 0.00 29 1025.7
20260903160037 78 319 5.0 8.0 0.00 0.00 0.00 29 1025.6
20260903155030 78 292 5.0 10.0 0.00 0.00 0.00 32 1025.6
20260903154029 78 326 5.0 9.0 0.00 0.00 0.00 30 1025.6
20260903153029 78 336 6.0 10.0 0.00 0.00 0.00 33 1025.6
20260903152029 78 315 5.0 11.0 0.00 0.00 0.00 31 1025.5
20260903150029 78 285 7.0 13.0 0.00 0.00 0.00 27 1025.5
20260903145029 78 243 6.0 10.0 0.00 0.00 0.00 25 1025.5